Location: *
(52.2090°N, 4.1550°W)
Time: 15:15:00
(UTC+00:00)

Cosmos 1092 Rocket - Pass Details

Date: 19 July 2019
Orbit: 953 x 996 km, 82.9° (Epoch: 22 August)

Event Time Altitude Azimuth Distance (km) Brightness Sun altitude
Rises 21:58:44 0° 348° (NNW) 3,699 8.5 -10.5°
Reaches altitude 10° 22:01:17 10° 346° (NNW) 2,741 7.6 -10.8°
Maximum altitude 22:07:30 69° 265° (W) 1,036 4.3 -11.3°
Drops below altitude 10° 22:13:37 10° 183° (S) 2,693 5.8 -11.8°
Enters shadow 22:13:49 - 183° (S) 2,765 5.9 -11.8°
